Year,Month,Day,Hour,Minute,Value (Times are PST for windspeed in km/hr)
2009,09,04,00,00,0.00
2009,09,04,00,01,0.00
2009,09,04,00,02,0.00
2009,09,04,00,03,0.00
2009,09,04,00,04,0.00
2009,09,04,00,05,0.00
2009,09,04,00,06,0.00
2009,09,04,00,07,0.00
2009,09,04,00,08,0.00
2009,09,04,00,09,0.00
2009,09,04,00,10,0.00
2009,09,04,00,11,0.00
2009,09,04,00,12,0.00
2009,09,04,00,13,0.00
2009,09,04,00,15,0.00
2009,09,04,00,16,0.00
2009,09,04,00,17,0.00
2009,09,04,00,18,0.00
2009,09,04,00,19,0.00
2009,09,04,00,20,0.00
2009,09,04,00,21,0.00
2009,09,04,00,22,0.00
2009,09,04,00,23,0.00
2009,09,04,00,24,0.00
2009,09,04,00,25,0.00
2009,09,04,00,26,0.00
2009,09,04,00,27,0.00
2009,09,04,00,28,0.00
2009,09,04,00,29,0.00
2009,09,04,00,30,0.00
2009,09,04,00,31,0.00
2009,09,04,00,32,0.00
2009,09,04,00,33,0.00
2009,09,04,00,34,0.00
2009,09,04,00,35,0.00
2009,09,04,00,36,0.00
2009,09,04,00,37,0.00
2009,09,04,00,38,0.00
2009,09,04,00,39,0.00
2009,09,04,00,40,0.00
2009,09,04,00,41,0.00
2009,09,04,00,42,0.00
2009,09,04,00,43,1.00
2009,09,04,00,44,1.70
2009,09,04,00,45,0.20
2009,09,04,00,46,2.30
2009,09,04,00,47,0.20
2009,09,04,00,48,0.20
2009,09,04,00,49,0.00
2009,09,04,00,50,0.00
2009,09,04,00,51,0.00
2009,09,04,00,52,0.00
2009,09,04,00,53,0.00
2009,09,04,00,54,0.00
2009,09,04,00,55,0.00
2009,09,04,00,56,0.00
2009,09,04,00,57,0.00
2009,09,04,00,58,0.00
2009,09,04,00,59,0.00
2009,09,04,01,00,0.00
2009,09,04,01,01,0.00
2009,09,04,01,02,0.00
2009,09,04,01,03,0.00
2009,09,04,01,04,0.00
2009,09,04,01,05,0.00
2009,09,04,01,06,0.00
2009,09,04,01,07,0.00
2009,09,04,01,08,0.00
2009,09,04,01,09,0.00
2009,09,04,01,10,0.20
2009,09,04,01,11,0.00
2009,09,04,01,12,0.00
2009,09,04,01,13,0.00
2009,09,04,01,14,0.00
2009,09,04,01,15,0.10
2009,09,04,01,16,0.00
2009,09,04,01,17,0.00
2009,09,04,01,18,0.00
2009,09,04,01,19,0.00
2009,09,04,01,20,0.20
2009,09,04,01,21,0.00
2009,09,04,01,22,0.00
2009,09,04,01,23,0.00
2009,09,04,01,24,0.00
2009,09,04,01,25,0.00
2009,09,04,01,26,0.00
2009,09,04,01,27,0.00
2009,09,04,01,28,0.00
2009,09,04,01,29,0.00
2009,09,04,01,30,0.00
2009,09,04,01,31,0.00
2009,09,04,01,32,0.00
2009,09,04,01,33,0.00
2009,09,04,01,34,0.00
2009,09,04,01,35,0.20
2009,09,04,01,36,0.00
2009,09,04,01,37,0.00
2009,09,04,01,38,0.00
2009,09,04,01,39,0.10
2009,09,04,01,40,0.00
2009,09,04,01,41,0.00
2009,09,04,01,42,0.00
2009,09,04,01,43,0.00
2009,09,04,01,44,0.00
2009,09,04,01,45,0.00
2009,09,04,01,46,0.00
2009,09,04,01,47,0.00
2009,09,04,01,48,0.10
2009,09,04,01,49,0.00
2009,09,04,01,50,0.10
2009,09,04,01,51,0.00
2009,09,04,01,52,0.00
2009,09,04,01,53,0.00
2009,09,04,01,54,0.00
2009,09,04,01,55,0.00
2009,09,04,01,56,0.00
2009,09,04,01,57,0.00
2009,09,04,01,58,0.00
2009,09,04,01,59,0.00
2009,09,04,02,00,0.00
2009,09,04,02,01,0.00
2009,09,04,02,02,0.00
2009,09,04,02,03,0.00
2009,09,04,02,04,0.00
2009,09,04,02,05,0.00
2009,09,04,02,06,0.00
2009,09,04,02,07,0.00
2009,09,04,02,08,0.00
2009,09,04,02,09,0.00
2009,09,04,02,10,0.00
2009,09,04,02,11,0.00
2009,09,04,02,12,0.00
2009,09,04,02,13,0.00
2009,09,04,02,14,0.00
2009,09,04,02,15,0.00
2009,09,04,02,16,0.00
2009,09,04,02,17,0.00
2009,09,04,02,18,0.00
2009,09,04,02,19,0.00
2009,09,04,02,20,0.00
2009,09,04,02,21,0.10
2009,09,04,02,22,0.00
2009,09,04,02,23,0.10
2009,09,04,02,24,0.00
2009,09,04,02,25,0.10
2009,09,04,02,26,0.00
2009,09,04,02,27,0.10
2009,09,04,02,28,0.00
2009,09,04,02,29,0.00
2009,09,04,02,30,0.00
2009,09,04,02,31,0.00
2009,09,04,02,32,0.00
2009,09,04,02,33,0.00
2009,09,04,02,34,0.00
2009,09,04,02,35,0.10
2009,09,04,02,36,0.00
2009,09,04,02,37,0.00
2009,09,04,02,38,0.00
2009,09,04,02,39,0.00
2009,09,04,02,40,0.00
2009,09,04,02,41,0.00
2009,09,04,02,42,0.00
2009,09,04,02,43,0.00
2009,09,04,02,44,0.00
2009,09,04,02,45,0.00
2009,09,04,02,46,0.00
2009,09,04,02,47,0.00
2009,09,04,02,48,0.00
2009,09,04,02,49,0.00
2009,09,04,02,50,0.00
2009,09,04,02,51,0.10
2009,09,04,02,52,0.10
2009,09,04,02,53,0.10
2009,09,04,02,54,0.00
2009,09,04,02,55,0.00
2009,09,04,02,56,0.10
2009,09,04,02,57,0.10
2009,09,04,02,58,0.30
2009,09,04,02,59,0.10
2009,09,04,03,00,0.10
2009,09,04,03,01,0.00
2009,09,04,03,02,0.00
2009,09,04,03,03,0.00
2009,09,04,03,04,0.00
2009,09,04,03,05,0.00
2009,09,04,03,06,0.00
2009,09,04,03,07,0.00
2009,09,04,03,08,0.00
2009,09,04,03,09,0.20
2009,09,04,03,10,0.20
2009,09,04,03,11,0.20
2009,09,04,03,12,0.00
2009,09,04,03,13,0.10
2009,09,04,03,14,0.90
2009,09,04,03,15,0.20
2009,09,04,03,16,0.00
2009,09,04,03,17,0.10
2009,09,04,03,18,0.20
2009,09,04,03,19,0.10
2009,09,04,03,20,0.00
2009,09,04,03,21,0.00
2009,09,04,03,22,0.00
2009,09,04,03,23,0.00
2009,09,04,03,24,0.00
2009,09,04,03,25,0.00
2009,09,04,03,26,0.00
2009,09,04,03,27,0.00
2009,09,04,03,28,0.00
2009,09,04,03,29,0.00
2009,09,04,03,30,0.00
2009,09,04,03,31,0.00
2009,09,04,03,32,0.00
2009,09,04,03,33,0.00
2009,09,04,03,34,0.00
2009,09,04,03,35,0.10
2009,09,04,03,36,0.00
2009,09,04,03,37,0.10
2009,09,04,03,38,0.00
2009,09,04,03,39,0.00
2009,09,04,03,40,0.00
2009,09,04,03,41,0.00
2009,09,04,03,42,0.00
2009,09,04,03,43,0.00
2009,09,04,03,44,0.00
2009,09,04,03,45,0.00
2009,09,04,03,46,0.00
2009,09,04,03,47,0.00
2009,09,04,03,48,0.00
2009,09,04,03,49,0.00
2009,09,04,03,50,0.00
2009,09,04,03,51,0.00
2009,09,04,03,52,0.00
2009,09,04,03,53,0.00
2009,09,04,03,54,0.00
2009,09,04,03,55,0.00
2009,09,04,03,56,0.00
2009,09,04,03,57,0.00
2009,09,04,03,58,0.00
2009,09,04,03,59,0.00
2009,09,04,04,00,0.00
2009,09,04,04,01,0.00
2009,09,04,04,02,0.00
2009,09,04,04,03,0.00
2009,09,04,04,04,0.00
2009,09,04,04,05,0.00
2009,09,04,04,06,0.50
2009,09,04,04,07,0.10
2009,09,04,04,08,0.00
2009,09,04,04,09,0.00
2009,09,04,04,10,0.00
2009,09,04,04,11,0.00
2009,09,04,04,12,0.00
2009,09,04,04,13,0.00
2009,09,04,04,14,0.00
2009,09,04,04,15,0.00
2009,09,04,04,16,0.00
2009,09,04,04,17,0.00
2009,09,04,04,18,0.20
2009,09,04,04,19,0.00
2009,09,04,04,20,0.00
2009,09,04,04,21,0.00
2009,09,04,04,22,0.00
2009,09,04,04,23,0.00
2009,09,04,04,24,0.00
2009,09,04,04,25,0.00
2009,09,04,04,26,0.00
2009,09,04,04,27,0.10
2009,09,04,04,28,0.10
2009,09,04,04,29,0.10
2009,09,04,04,30,0.10
2009,09,04,04,31,0.00
2009,09,04,04,32,0.80
2009,09,04,04,33,0.30
2009,09,04,04,34,0.30
2009,09,04,04,35,0.10
2009,09,04,04,36,0.20
2009,09,04,04,37,0.10
2009,09,04,04,38,0.10
2009,09,04,04,39,0.00
2009,09,04,04,40,0.20
2009,09,04,04,41,0.10
2009,09,04,04,42,1.00
2009,09,04,04,43,0.90
2009,09,04,04,44,0.10
2009,09,04,04,45,0.80
2009,09,04,04,46,1.10
2009,09,04,04,47,0.60
2009,09,04,04,48,0.20
2009,09,04,04,49,0.20
2009,09,04,04,50,0.00
2009,09,04,04,51,0.20
2009,09,04,04,52,0.40
2009,09,04,04,53,1.30
2009,09,04,04,54,1.00
2009,09,04,04,55,2.50
2009,09,04,04,56,0.20
2009,09,04,04,57,1.50
2009,09,04,04,58,1.80
2009,09,04,04,59,1.10
2009,09,04,05,00,1.10
2009,09,04,05,01,0.40
2009,09,04,05,02,0.10
2009,09,04,05,03,1.40
2009,09,04,05,04,1.40
2009,09,04,05,05,0.20
2009,09,04,05,06,4.30
2009,09,04,05,07,2.50
2009,09,04,05,08,3.80
2009,09,04,05,09,2.60
2009,09,04,05,10,3.30
2009,09,04,05,11,3.90
2009,09,04,05,12,3.30
2009,09,04,05,13,2.30
2009,09,04,05,14,3.90
2009,09,04,05,15,3.10
2009,09,04,05,16,1.50
2009,09,04,05,17,1.40
2009,09,04,05,18,4.10
2009,09,04,05,19,2.90
2009,09,04,05,20,1.10
2009,09,04,05,21,1.60
2009,09,04,05,22,1.50
2009,09,04,05,23,2.00
2009,09,04,05,24,2.70
2009,09,04,05,25,4.10
2009,09,04,05,26,2.00
2009,09,04,05,27,3.10
2009,09,04,05,28,1.80
2009,09,04,05,29,3.20
2009,09,04,05,30,3.50
2009,09,04,05,31,3.30
2009,09,04,05,32,1.00
2009,09,04,05,33,1.20
2009,09,04,05,34,0.60
2009,09,04,05,35,4.20
2009,09,04,05,36,1.90
2009,09,04,05,37,2.10
2009,09,04,05,38,0.20
2009,09,04,05,39,0.20
2009,09,04,05,40,0.10
2009,09,04,05,41,0.10
2009,09,04,05,42,0.20
2009,09,04,05,43,0.40
2009,09,04,05,44,1.00
2009,09,04,05,45,0.10
2009,09,04,05,46,0.00
2009,09,04,05,47,0.00
2009,09,04,05,48,0.00
2009,09,04,05,49,0.00
2009,09,04,05,50,0.00
2009,09,04,05,51,0.00
2009,09,04,05,52,0.10
2009,09,04,05,53,0.00
2009,09,04,05,54,0.00
2009,09,04,05,55,0.00
2009,09,04,05,56,0.00
2009,09,04,05,57,0.00
2009,09,04,05,58,0.00
2009,09,04,05,59,0.00
2009,09,04,06,00,0.00
2009,09,04,06,01,0.00
2009,09,04,06,02,0.00
2009,09,04,06,03,0.00
2009,09,04,06,04,0.00
2009,09,04,06,05,0.10
2009,09,04,06,06,0.10
2009,09,04,06,07,0.00
2009,09,04,06,08,0.00
2009,09,04,06,09,0.20
2009,09,04,06,10,0.10
2009,09,04,06,11,0.00
2009,09,04,06,12,0.00
2009,09,04,06,13,0.00
2009,09,04,06,14,0.00
2009,09,04,06,15,0.00
2009,09,04,06,16,0.00
2009,09,04,06,17,0.00
2009,09,04,06,18,0.00
2009,09,04,06,19,0.20
2009,09,04,06,20,1.30
2009,09,04,06,21,0.00
2009,09,04,06,22,0.00
2009,09,04,06,23,0.00
2009,09,04,06,24,0.00
2009,09,04,06,25,0.00
2009,09,04,06,26,0.00
2009,09,04,06,27,0.00
2009,09,04,06,28,0.00
2009,09,04,06,29,0.00
2009,09,04,06,30,0.00
2009,09,04,06,31,0.00
2009,09,04,06,32,0.00
2009,09,04,06,33,0.00
2009,09,04,06,34,0.00
2009,09,04,06,35,0.00
2009,09,04,06,36,0.00
2009,09,04,06,37,0.00
2009,09,04,06,38,0.00
2009,09,04,06,39,0.10
2009,09,04,06,40,0.00
2009,09,04,06,41,0.00
2009,09,04,06,42,0.00
2009,09,04,06,43,0.00
2009,09,04,06,44,0.00
2009,09,04,06,45,0.10
2009,09,04,06,46,0.60
2009,09,04,06,47,2.80
2009,09,04,06,48,0.60
2009,09,04,06,49,0.20
2009,09,04,06,50,0.80
2009,09,04,06,51,1.90
2009,09,04,06,52,2.60
2009,09,04,06,53,3.20
2009,09,04,06,54,3.80
2009,09,04,06,55,1.90
2009,09,04,06,56,0.70
2009,09,04,06,57,0.90
2009,09,04,06,58,1.40
2009,09,04,06,59,0.30
2009,09,04,07,00,0.00
2009,09,04,07,01,0.00
2009,09,04,07,02,0.10
2009,09,04,07,03,0.40
2009,09,04,07,04,3.60
2009,09,04,07,05,3.10
2009,09,04,07,06,3.40
2009,09,04,07,07,1.10
2009,09,04,07,08,0.50
2009,09,04,07,09,0.50
2009,09,04,07,10,0.10
2009,09,04,07,11,0.00
2009,09,04,07,12,0.10
2009,09,04,07,13,0.00
2009,09,04,07,14,0.20
2009,09,04,07,15,0.00
2009,09,04,07,16,0.00
2009,09,04,07,17,0.00
2009,09,04,07,18,0.00
2009,09,04,07,19,0.00
2009,09,04,07,20,0.00
2009,09,04,07,21,0.00
2009,09,04,07,22,0.00
2009,09,04,07,23,0.00
2009,09,04,07,24,1.10
2009,09,04,07,25,0.20
2009,09,04,07,26,0.30
2009,09,04,07,27,0.20
2009,09,04,07,28,0.00
2009,09,04,07,29,0.00
2009,09,04,07,30,0.00
2009,09,04,07,31,0.00
2009,09,04,07,32,0.00
2009,09,04,07,33,0.00
2009,09,04,07,34,0.00
2009,09,04,07,35,0.00
2009,09,04,07,36,0.00
2009,09,04,07,37,0.00
2009,09,04,07,38,0.00
2009,09,04,07,39,0.00
2009,09,04,07,40,0.00
2009,09,04,07,41,0.00
2009,09,04,07,42,0.00
2009,09,04,07,43,0.10
2009,09,04,07,44,0.00
2009,09,04,07,45,0.00
2009,09,04,07,46,0.00
2009,09,04,07,47,0.00
2009,09,04,07,48,0.00
2009,09,04,07,49,0.00
2009,09,04,07,50,0.00
2009,09,04,07,51,0.00
2009,09,04,07,52,0.10
2009,09,04,07,53,0.10
2009,09,04,07,54,0.10
2009,09,04,07,55,0.00
2009,09,04,07,56,0.00
2009,09,04,07,57,1.40
2009,09,04,07,58,0.90
2009,09,04,07,59,1.20
2009,09,04,08,00,2.70
2009,09,04,08,01,0.50
2009,09,04,08,02,0.10
2009,09,04,08,03,0.30
2009,09,04,08,04,3.20
2009,09,04,08,05,3.30
2009,09,04,08,06,3.50
2009,09,04,08,07,2.60
2009,09,04,08,08,0.80
2009,09,04,08,09,0.10
2009,09,04,08,10,1.50
2009,09,04,08,11,2.20
2009,09,04,08,12,0.20
2009,09,04,08,13,1.00
2009,09,04,08,14,0.50
2009,09,04,08,15,0.30
2009,09,04,08,16,1.00
2009,09,04,08,17,2.00
2009,09,04,08,18,0.30
2009,09,04,08,19,1.30
2009,09,04,08,20,0.50
2009,09,04,08,21,2.00
2009,09,04,08,22,1.70
2009,09,04,08,23,2.70
2009,09,04,08,24,3.30
2009,09,04,08,25,2.90
2009,09,04,08,26,2.40
2009,09,04,08,27,1.10
2009,09,04,08,28,0.80
2009,09,04,08,29,2.10
2009,09,04,08,30,3.50
2009,09,04,08,31,2.50
2009,09,04,08,32,3.80
2009,09,04,08,33,2.10
2009,09,04,08,34,3.00
2009,09,04,08,35,1.20
2009,09,04,08,36,2.20
2009,09,04,08,37,1.50
2009,09,04,08,38,3.90
2009,09,04,08,39,3.00
2009,09,04,08,40,3.40
2009,09,04,08,41,2.70
2009,09,04,08,42,2.70
2009,09,04,08,43,0.60
2009,09,04,08,44,2.60
2009,09,04,08,45,3.00
2009,09,04,08,46,0.80
2009,09,04,08,47,3.50
2009,09,04,08,48,2.30
2009,09,04,08,49,1.70
2009,09,04,08,50,4.30
2009,09,04,08,51,1.70
2009,09,04,08,52,3.20
2009,09,04,08,53,2.60
2009,09,04,08,54,0.40
2009,09,04,08,55,1.30
2009,09,04,08,56,4.30
2009,09,04,08,57,2.60
2009,09,04,08,58,4.30
2009,09,04,08,59,4.10
2009,09,04,09,00,3.50
2009,09,04,09,01,5.10
2009,09,04,09,02,5.30
2009,09,04,09,03,4.70
2009,09,04,09,04,4.70
2009,09,04,09,05,4.30
2009,09,04,09,06,2.70
2009,09,04,09,07,1.00
2009,09,04,09,08,3.50
2009,09,04,09,09,4.90
2009,09,04,09,10,1.50
2009,09,04,09,11,1.90
2009,09,04,09,12,6.40
2009,09,04,09,13,3.40
2009,09,04,09,14,3.60
2009,09,04,09,15,4.90
2009,09,04,09,16,4.30
2009,09,04,09,17,2.90
2009,09,04,09,18,5.80
2009,09,04,09,19,5.70
2009,09,04,09,20,3.10
2009,09,04,09,21,3.90
2009,09,04,09,22,2.90
2009,09,04,09,23,5.90
2009,09,04,09,24,4.90
2009,09,04,09,25,0.20
2009,09,04,09,26,0.00
2009,09,04,09,27,0.60
2009,09,04,09,28,0.70
2009,09,04,09,29,1.70
2009,09,04,09,30,0.30
2009,09,04,09,31,1.40
2009,09,04,09,32,0.60
2009,09,04,09,33,2.50
2009,09,04,09,34,1.40
2009,09,04,09,35,2.20
2009,09,04,09,36,0.30
2009,09,04,09,37,3.90
2009,09,04,09,38,3.50
2009,09,04,09,39,1.00
2009,09,04,09,40,2.70
2009,09,04,09,41,1.90
2009,09,04,09,42,2.60
2009,09,04,09,43,0.10
2009,09,04,09,44,0.30
2009,09,04,09,45,0.80
2009,09,04,09,46,0.30
2009,09,04,09,47,0.10
2009,09,04,09,48,3.20
2009,09,04,09,49,4.20
2009,09,04,09,50,1.40
2009,09,04,09,51,0.50
2009,09,04,09,52,3.10
2009,09,04,09,53,3.10
2009,09,04,09,54,3.80
2009,09,04,09,55,3.00
2009,09,04,09,56,3.00
2009,09,04,09,57,2.30
2009,09,04,09,58,1.90
2009,09,04,09,59,3.00
2009,09,04,10,00,1.50
2009,09,04,10,01,0.50
2009,09,04,10,02,1.10
2009,09,04,10,03,0.70
2009,09,04,10,04,0.90
2009,09,04,10,05,1.90
2009,09,04,10,06,6.50
2009,09,04,10,07,7.00
2009,09,04,10,08,7.20
2009,09,04,10,09,7.70
2009,09,04,10,10,6.00
2009,09,04,10,11,2.70
2009,09,04,10,12,5.20
2009,09,04,10,13,6.00
2009,09,04,10,14,4.90
2009,09,04,10,15,6.40
2009,09,04,10,16,4.10
2009,09,04,10,17,0.30
2009,09,04,10,18,1.80
2009,09,04,10,19,1.90
2009,09,04,10,20,2.30
2009,09,04,10,21,2.30
2009,09,04,10,22,5.40
2009,09,04,10,23,2.90
2009,09,04,10,24,1.10
2009,09,04,10,25,5.00
2009,09,04,10,26,1.00
2009,09,04,10,27,2.70
2009,09,04,10,28,5.10
2009,09,04,10,29,3.40
2009,09,04,10,30,4.20
2009,09,04,10,31,4.60
2009,09,04,10,32,2.70
2009,09,04,10,33,3.40
2009,09,04,10,34,4.40
2009,09,04,10,35,3.80
2009,09,04,10,36,3.70
2009,09,04,10,37,3.10
2009,09,04,10,38,8.00
2009,09,04,10,39,3.70
2009,09,04,10,40,5.20
2009,09,04,10,41,3.60
2009,09,04,10,42,4.60
2009,09,04,10,43,3.60
2009,09,04,10,44,4.60
2009,09,04,10,45,3.60
2009,09,04,10,46,0.40
2009,09,04,10,47,0.60
2009,09,04,10,48,0.30
2009,09,04,10,49,1.70
2009,09,04,10,50,5.80
2009,09,04,10,51,1.00
2009,09,04,10,52,0.40
2009,09,04,10,53,3.10
2009,09,04,10,54,1.60
2009,09,04,10,55,1.80
2009,09,04,10,56,7.10
2009,09,04,10,57,5.00
2009,09,04,10,58,6.20
2009,09,04,10,59,3.90
2009,09,04,11,00,1.20
2009,09,04,11,01,3.10
2009,09,04,11,02,5.70
2009,09,04,11,03,4.60
2009,09,04,11,04,4.30
2009,09,04,11,05,4.40
2009,09,04,11,06,3.20
2009,09,04,11,07,2.90
2009,09,04,11,08,1.40
2009,09,04,11,09,2.50
2009,09,04,11,10,2.90
2009,09,04,11,11,1.70
2009,09,04,11,12,1.40
2009,09,04,11,13,2.00
2009,09,04,11,14,3.50
2009,09,04,11,15,4.50
2009,09,04,11,16,3.80
2009,09,04,11,17,1.90
2009,09,04,11,18,1.60
2009,09,04,11,19,4.30
2009,09,04,11,20,1.90
2009,09,04,11,21,1.60
2009,09,04,11,22,0.80
2009,09,04,11,23,4.60
2009,09,04,11,24,2.50
2009,09,04,11,25,1.60
2009,09,04,11,26,0.70
2009,09,04,11,27,4.60
2009,09,04,11,28,4.70
2009,09,04,11,29,1.90
2009,09,04,11,30,1.90
2009,09,04,11,31,1.10
2009,09,04,11,32,2.10
2009,09,04,11,33,2.60
2009,09,04,11,34,2.50
2009,09,04,11,35,2.10
2009,09,04,11,36,1.10
2009,09,04,11,37,3.80
2009,09,04,11,38,5.30
2009,09,04,11,39,5.10
2009,09,04,11,40,2.50
2009,09,04,11,41,2.20
2009,09,04,11,42,4.80
2009,09,04,11,43,7.20
2009,09,04,11,44,6.30
2009,09,04,11,45,2.90
2009,09,04,11,46,1.50
2009,09,04,11,47,4.30
2009,09,04,11,48,4.70
2009,09,04,11,49,5.60
2009,09,04,11,50,5.20
2009,09,04,11,51,2.20
2009,09,04,11,52,1.30
2009,09,04,11,53,1.10
2009,09,04,11,54,2.40
2009,09,04,11,55,1.80
2009,09,04,11,56,3.10
2009,09,04,11,57,5.60
2009,09,04,11,58,1.40
2009,09,04,11,59,4.30
2009,09,04,12,00,1.90
2009,09,04,12,01,1.40
2009,09,04,12,02,3.60
2009,09,04,12,03,4.30
2009,09,04,12,04,3.60
2009,09,04,12,05,0.90
2009,09,04,12,06,1.90
2009,09,04,12,07,3.50
2009,09,04,12,08,4.00
2009,09,04,12,09,4.70
2009,09,04,12,10,3.70
2009,09,04,12,11,3.00
2009,09,04,12,12,2.30
2009,09,04,12,13,3.60
2009,09,04,12,14,2.20
2009,09,04,12,15,4.60
2009,09,04,12,16,3.20
2009,09,04,12,17,6.60
2009,09,04,12,18,7.00
2009,09,04,12,19,3.20
2009,09,04,12,20,7.90
2009,09,04,12,21,4.30
2009,09,04,12,22,4.50
2009,09,04,12,23,5.70
2009,09,04,12,24,3.00
2009,09,04,12,25,3.30
2009,09,04,12,26,5.80
2009,09,04,12,27,3.60
2009,09,04,12,28,1.30
2009,09,04,12,29,0.30
2009,09,04,12,30,5.40
2009,09,04,12,31,4.90
2009,09,04,12,32,1.60
2009,09,04,12,33,1.10
2009,09,04,12,34,3.50
2009,09,04,12,35,4.10
2009,09,04,12,36,2.90
2009,09,04,12,37,6.00
2009,09,04,12,38,2.80
2009,09,04,12,39,3.90
2009,09,04,12,40,1.50
2009,09,04,12,41,3.10
2009,09,04,12,42,4.30
2009,09,04,12,43,3.30
2009,09,04,12,44,5.00
2009,09,04,12,45,5.70
2009,09,04,12,46,2.60
2009,09,04,12,47,10.10
2009,09,04,12,48,7.60
2009,09,04,12,49,5.30
2009,09,04,12,50,1.20
2009,09,04,12,51,3.00
2009,09,04,12,52,4.70
2009,09,04,12,53,6.80
2009,09,04,12,54,3.80
2009,09,04,12,55,7.10
2009,09,04,12,56,3.80
2009,09,04,12,57,1.60
2009,09,04,12,58,3.80
2009,09,04,12,59,1.90
2009,09,04,13,00,4.70
2009,09,04,13,01,2.00
2009,09,04,13,02,4.10
2009,09,04,13,03,1.80
2009,09,04,13,04,2.70
2009,09,04,13,05,1.80
2009,09,04,13,06,1.90
2009,09,04,13,07,1.80
2009,09,04,13,08,1.50
2009,09,04,13,09,4.70
2009,09,04,13,10,3.80
2009,09,04,13,11,4.20
2009,09,04,13,12,3.30
2009,09,04,13,13,2.70
2009,09,04,13,14,2.60
2009,09,04,13,15,2.40
2009,09,04,13,16,6.80
2009,09,04,13,17,6.30
2009,09,04,13,18,2.40
2009,09,04,13,19,1.60
2009,09,04,13,20,4.20
2009,09,04,13,21,3.20
2009,09,04,13,22,2.20
2009,09,04,13,23,3.10
2009,09,04,13,24,7.20
2009,09,04,13,25,2.90
2009,09,04,13,26,4.00
2009,09,04,13,27,5.90
2009,09,04,13,28,4.20
2009,09,04,13,29,5.50
2009,09,04,13,30,8.10
2009,09,04,13,31,6.80
2009,09,04,13,32,7.10
2009,09,04,13,33,7.30
2009,09,04,13,34,2.70
2009,09,04,13,35,1.90
2009,09,04,13,36,0.90
2009,09,04,13,37,2.30
2009,09,04,13,38,7.00
2009,09,04,13,39,5.50
2009,09,04,13,40,4.70
2009,09,04,13,41,2.60
2009,09,04,13,42,4.20
2009,09,04,13,43,3.50
2009,09,04,13,44,3.60
2009,09,04,13,45,8.30
2009,09,04,13,46,3.90
2009,09,04,13,47,4.70
2009,09,04,13,48,5.20
2009,09,04,13,49,1.80
2009,09,04,13,50,4.90
2009,09,04,13,51,3.80
2009,09,04,13,52,4.30
2009,09,04,13,53,2.20
2009,09,04,13,54,3.90
2009,09,04,13,55,4.10
2009,09,04,13,56,4.70
2009,09,04,13,57,1.80
2009,09,04,13,58,3.80
2009,09,04,13,59,0.80
2009,09,04,14,00,3.90
2009,09,04,14,01,2.50
2009,09,04,14,02,1.90
2009,09,04,14,03,2.80
2009,09,04,14,04,5.90
2009,09,04,14,05,4.70
2009,09,04,14,06,4.70
2009,09,04,14,07,3.00
2009,09,04,14,08,2.10
2009,09,04,14,09,3.90
2009,09,04,14,10,2.50
2009,09,04,14,11,1.40
2009,09,04,14,12,2.50
2009,09,04,14,13,3.60
2009,09,04,14,14,6.10
2009,09,04,14,15,3.30
2009,09,04,14,16,3.10
2009,09,04,14,17,1.20
2009,09,04,14,18,0.50
2009,09,04,14,19,4.30
2009,09,04,14,20,5.00
2009,09,04,14,21,6.00
2009,09,04,14,22,5.10
2009,09,04,14,23,6.70
2009,09,04,14,24,5.30
2009,09,04,14,25,2.50
2009,09,04,14,26,4.10
2009,09,04,14,27,3.50
2009,09,04,14,28,5.10
2009,09,04,14,29,3.30
2009,09,04,14,30,3.40
2009,09,04,14,31,2.70
2009,09,04,14,32,2.60
2009,09,04,14,33,1.10
2009,09,04,14,34,1.00
2009,09,04,14,35,6.40
2009,09,04,14,36,5.20
2009,09,04,14,37,0.90
2009,09,04,14,38,2.80
2009,09,04,14,39,6.80
2009,09,04,14,40,3.50
2009,09,04,14,41,2.00
2009,09,04,14,42,2.70
2009,09,04,14,43,8.00
2009,09,04,14,44,6.00
2009,09,04,14,45,6.80
2009,09,04,14,46,1.70
2009,09,04,14,47,1.00
2009,09,04,14,48,2.50
2009,09,04,14,49,4.70
2009,09,04,14,50,1.40
2009,09,04,14,51,5.60
2009,09,04,14,52,3.70
2009,09,04,14,53,5.90
2009,09,04,14,54,5.00
2009,09,04,14,55,2.30
2009,09,04,14,56,3.10
2009,09,04,14,57,4.70
2009,09,04,14,58,9.40
2009,09,04,14,59,7.00
2009,09,04,15,00,8.10
2009,09,04,15,01,8.80
2009,09,04,15,02,7.30
2009,09,04,15,03,4.30
2009,09,04,15,04,2.80
2009,09,04,15,05,4.60
2009,09,04,15,06,5.20
2009,09,04,15,07,6.30
2009,09,04,15,08,4.70
2009,09,04,15,09,5.60
2009,09,04,15,10,4.90
2009,09,04,15,11,4.70
2009,09,04,15,12,3.80
2009,09,04,15,13,5.10
2009,09,04,15,14,5.90
2009,09,04,15,15,1.00
2009,09,04,15,16,2.70
2009,09,04,15,17,0.60
2009,09,04,15,18,2.00
2009,09,04,15,19,3.10
2009,09,04,15,20,4.30
2009,09,04,15,21,5.00
2009,09,04,15,22,5.10
2009,09,04,15,23,2.80
2009,09,04,15,24,2.30
2009,09,04,15,25,1.40
2009,09,04,15,26,5.80
2009,09,04,15,27,2.20
2009,09,04,15,28,0.30
2009,09,04,15,29,2.40
2009,09,04,15,30,0.70
2009,09,04,15,31,2.40
2009,09,04,15,32,4.80
2009,09,04,15,33,5.10
2009,09,04,15,34,1.90
2009,09,04,15,35,3.60
2009,09,04,15,36,0.30
2009,09,04,15,37,3.00
2009,09,04,15,38,2.80
2009,09,04,15,39,0.70
2009,09,04,15,40,4.70
2009,09,04,15,41,7.10
2009,09,04,15,42,8.60
2009,09,04,15,43,5.20
2009,09,04,15,44,4.30
2009,09,04,15,45,8.20
2009,09,04,15,46,7.20
2009,09,04,15,47,2.70
2009,09,04,15,48,4.20
2009,09,04,15,49,4.50
2009,09,04,15,50,3.40
2009,09,04,15,51,4.70
2009,09,04,15,52,3.70
2009,09,04,15,53,6.20
2009,09,04,15,54,3.90
2009,09,04,15,55,5.10
2009,09,04,15,56,4.00
2009,09,04,15,57,6.40
2009,09,04,15,58,3.70
2009,09,04,15,59,5.80
2009,09,04,16,00,4.80
2009,09,04,16,01,5.10
2009,09,04,16,02,5.10
2009,09,04,16,03,4.10
2009,09,04,16,04,3.10
2009,09,04,16,05,2.90
2009,09,04,16,06,5.60
2009,09,04,16,07,4.00
2009,09,04,16,08,5.30
2009,09,04,16,09,3.90
2009,09,04,16,10,0.60
2009,09,04,16,11,4.20
2009,09,04,16,12,4.80
2009,09,04,16,13,4.80
2009,09,04,16,14,3.60
2009,09,04,16,15,2.80
2009,09,04,16,16,2.20
2009,09,04,16,17,1.50
2009,09,04,16,18,0.30
2009,09,04,16,19,0.00
2009,09,04,16,20,0.00
2009,09,04,16,21,0.10
2009,09,04,16,22,1.00
2009,09,04,16,23,0.30
2009,09,04,16,24,3.50
2009,09,04,16,25,5.10
2009,09,04,16,26,0.40
2009,09,04,16,27,0.90
2009,09,04,16,28,4.00
2009,09,04,16,29,4.30
2009,09,04,16,30,2.50
2009,09,04,16,31,1.00
2009,09,04,16,32,0.80
2009,09,04,16,33,0.20
2009,09,04,16,34,3.30
2009,09,04,16,35,1.90
2009,09,04,16,36,3.40
2009,09,04,16,37,4.20
2009,09,04,16,38,2.60
2009,09,04,16,39,5.10
2009,09,04,16,40,5.40
2009,09,04,16,41,6.40
2009,09,04,16,42,2.10
2009,09,04,16,43,3.40
2009,09,04,16,44,4.20
2009,09,04,16,45,3.00
2009,09,04,16,46,3.30
2009,09,04,16,47,3.10
2009,09,04,16,48,5.60
2009,09,04,16,49,3.90
2009,09,04,16,50,2.90
2009,09,04,16,51,2.50
2009,09,04,16,52,5.10
2009,09,04,16,53,1.20
2009,09,04,16,54,3.10
2009,09,04,16,55,4.30
2009,09,04,16,56,3.60
2009,09,04,16,57,2.90
2009,09,04,16,58,4.40
2009,09,04,16,59,3.70
2009,09,04,17,00,0.40
2009,09,04,17,01,2.10
2009,09,04,17,02,3.20
2009,09,04,17,03,2.70
2009,09,04,17,04,1.90
2009,09,04,17,05,0.90
2009,09,04,17,06,1.90
2009,09,04,17,07,1.50
2009,09,04,17,08,0.50
2009,09,04,17,09,0.60
2009,09,04,17,10,0.90
2009,09,04,17,11,0.40
2009,09,04,17,12,0.60
2009,09,04,17,13,1.40
2009,09,04,17,14,0.50
2009,09,04,17,15,0.30
2009,09,04,17,16,1.90
2009,09,04,17,17,0.20
2009,09,04,17,18,1.90
2009,09,04,17,19,1.50
2009,09,04,17,20,0.80
2009,09,04,17,21,2.30
2009,09,04,17,22,2.20
2009,09,04,17,23,2.50
2009,09,04,17,24,1.90
2009,09,04,17,25,3.90
2009,09,04,17,26,4.80
2009,09,04,17,27,4.30
2009,09,04,17,28,1.30
2009,09,04,17,29,2.90
2009,09,04,17,30,1.40
2009,09,04,17,31,2.10
2009,09,04,17,32,2.10
2009,09,04,17,33,3.00
2009,09,04,17,34,1.10
2009,09,04,17,35,1.10
2009,09,04,17,36,4.90
2009,09,04,17,37,0.50
2009,09,04,17,38,0.20
2009,09,04,17,39,0.20
2009,09,04,17,40,0.00
2009,09,04,17,41,0.00
2009,09,04,17,42,0.10
2009,09,04,17,43,0.10
2009,09,04,17,44,2.70
2009,09,04,17,45,2.40
2009,09,04,17,46,2.10
2009,09,04,17,47,1.00
2009,09,04,17,48,0.50
2009,09,04,17,49,0.90
2009,09,04,17,50,0.70
2009,09,04,17,51,0.00
2009,09,04,17,52,0.40
2009,09,04,17,53,0.00
2009,09,04,17,54,0.10
2009,09,04,17,55,0.40
2009,09,04,17,56,0.00
2009,09,04,17,57,0.00
2009,09,04,17,58,0.00
2009,09,04,17,59,1.90
2009,09,04,18,00,1.30
2009,09,04,18,01,1.00
2009,09,04,18,02,2.90
2009,09,04,18,03,1.90
2009,09,04,18,04,2.40
2009,09,04,18,05,0.80
2009,09,04,18,06,0.90
2009,09,04,18,07,2.90